DW4121 Weather Reports


time (UTC)temp
F
wind
direction
speed
knots
gust
knots
rain 1hr
in
rain 24hr
in
rain mn
in
humidity
%
barometer
mb
20260506073104 51 49 6.1 12.2 0.00 0.00 0.00 74 1012.3
20260506072604 50 48 4.3 10.4 0.00 0.00 0.00 74 1012.3
20260506072103 50 34 4.3 10.4 0.00 0.00 0.00 76 1012.3
20260506071604 50 121 3.5 7.8 0.00 0.00 0.00 76 1012.3
20260506071104 49 51 4.3 7.0 0.00 0.00 0.00 77 1012.3
20260506070104 49 34 5.2 7.8 0.00 0.00 0.00 77 1012.2
20260506061604 49 72 6.1 11.3 0.00 0.00 0.00 74 1012.1
20260506060104 49 49 4.3 8.7 0.00 0.00 0.00 75 1012.0
20260506045104 47 78 4.3 7.8 0.00 0.00 0.00 79 1011.8
20260506043105 48 64 4.3 10.4 0.00 0.00 0.00 80 1011.7
20260506042605 48 57 3.5 7.8 0.00 0.00 0.00 80 1011.7
20260506041605 48 82 5.2 11.3 0.00 0.00 0.00 79 1011.8
20260506040605 48 55 6.1 10.4 0.00 0.00 0.00 79 1011.8
20260506035104 48 60 3.5 10.4 0.00 0.00 0.00 79 1011.6
20260506034104 49 28 4.3 8.7 0.00 0.00 0.00 79 1011.6
20260506033606 49 55 2.6 6.1 0.00 0.00 0.00 79 1011.6
20260506032605 49 63 2.6 7.8 0.00 0.00 0.00 79 1011.7
20260506032105 49 85 4.3 8.7 0.00 0.00 0.00 79 1011.7
20260506030605 49 88 2.6 6.1 0.00 0.00 0.00 78 1011.7
20260506030105 49 59 1.7 6.1 0.00 0.00 0.00 78 1011.7
20260506023104 50 84 3.5 10.4 0.00 0.01 0.00 78 1011.8
20260506022604 50 102 4.3 8.7 0.00 0.01 0.00 78 1011.8
20260506021604 50 114 3.5 6.1 0.00 0.01 0.00 78 1011.8
20260506020104 50 88 4.3 8.7 0.00 0.01 0.00 79 1011.8
20260506015606 50 72 4.3 8.7 0.00 0.01 0.00 79 1011.9
20260506015104 51 65 4.3 8.7 0.00 0.01 0.00 79 1011.9
20260506013605 51 124 3.5 8.7 0.00 0.01 0.00 79 1011.9
20260506011605 51 116 2.6 6.1 0.00 0.01 0.00 79 1012.0
20260506010604 51 68 4.3 10.4 0.00 0.01 0.00 78 1012.1
20260506005104 51 67 1.7 5.2 0.00 0.01 0.00 77 1012.0
20260506004604 51 110 5.2 10.4 0.00 0.01 0.00 77 1012.0
20260506003104 51 117 4.3 7.0 0.00 0.01 0.00 76 1012.1
20260506002604 52 114 2.6 7.0 0.00 0.01 0.00 75 1012.2
20260506002105 52 122 4.3 7.0 0.00 0.01 0.00 75 1012.1
20260506001605 52 119 5.2 12.2 0.00 0.01 0.00 75 1012.1
20260506000604 52 70 2.6 8.7 0.00 0.01 0.00 75 1012.1
20260506000104 52 104 5.2 10.4 0.00 0.01 0.00 75 1012.1
20260505234606 52 112 4.3 7.0 0.00 0.01 0.00 74 1012.1
20260505232605 53 114 4.3 10.4 0.00 0.01 0.00 74 1012.0
20260505231604 53 104 2.6 10.4 0.00 0.01 0.00 74 1012.0
20260505230104 53 121 5.2 10.4 0.00 0.01 0.00 73 1012.0
20260505225105 53 118 4.3 7.0 0.00 0.01 0.01 73 1011.9
20260505223604 54 87 4.3 11.3 0.00 0.01 0.01 76 1011.8
20260505215104 55 124 7.8 13.0 0.00 0.01 0.01 74 1011.8
20260505214604 55 146 5.2 15.6 0.00 0.01 0.01 73 1011.8
20260505214104 55 133 6.1 10.4 0.00 0.01 0.01 73 1011.8
20260505213604 55 124 7.0 12.2 0.00 0.01 0.01 73 1011.8
20260505213104 55 115 5.2 11.3 0.00 0.01 0.01 73 1011.7
20260505210105 56 145 3.5 10.4 0.00 0.01 0.01 71 1011.4
20260505204604 56 104 1.7 5.2 0.00 0.01 0.01 70 1011.2
20260505204105 56 105 3.5 7.0 0.00 0.01 0.01 69 1011.2
20260505203104 57 68 2.6 6.1 0.00 0.01 0.01 69 1011.2
20260505201605 57 105 2.6 10.4 0.00 0.01 0.01 69 1011.1
20260505201105 57 109 5.2 11.3 0.00 0.01 0.01 68 1011.2
20260505195104 57 98 5.2 11.3 0.00 0.01 0.01 68 1010.8
20260505194604 58 106 3.5 8.7 0.00 0.01 0.01 68 1010.8
20260505191105 59 61 4.3 8.7 0.00 0.01 0.01 67 1010.4
20260505190604 59 112 3.5 8.7 0.00 0.01 0.01 66 1010.4
20260505190104 59 114 4.3 7.0 0.00 0.01 0.01 65 1010.4
20260505184604 59 168 0.9 2.6 0.00 0.01 0.01 60 1010.3
20260505184104 59 168 1.7 2.6 0.00 0.01 0.01 60 1010.3
20260505183604 59 168 2.6 5.2 0.00 0.01 0.01 60 1010.3
20260505183104 59 173 4.3 5.2 0.00 0.01 0.01 59 1010.2
20260505182604 59 183 4.3 6.1 0.00 0.01 0.01 60 1010.2
20260505180604 60 92 2.6 7.0 0.00 0.01 0.01 60 1010.2
20260505180105 60 111 2.6 7.0 0.00 0.01 0.01 60 1010.2
20260505175104 60 139 0.9 5.2 0.00 0.01 0.01 58 1010.2
20260505171104 61 47 2.6 6.1 0.00 0.01 0.01 58 1010.2
20260505170604 61 68 4.3 10.4 0.00 0.01 0.01 58 1010.2
20260505165604 61 51 2.6 6.1 0.00 0.01 0.01 56 1010.2
20260505164604 61 118 0.9 4.3 0.00 0.01 0.01 56 1010.2
20260505164104 61 112 1.7 2.6 0.00 0.01 0.01 56 1010.2
20260505163604 61 124 1.7 2.6 0.00 0.01 0.01 56 1010.2
20260505162104 61 55 1.7 2.6 0.00 0.01 0.01 56 1010.2
20260505160604 61 148 0.0 2.6 0.00 0.01 0.01 56 1010.2
20260505151604 63 42 2.6 6.1 0.00 0.01 0.01 56 1010.3
20260505150604 63 31 4.3 8.7 0.00 0.01 0.01 54 1010.4
20260505150106 63 75 3.5 10.4 0.00 0.01 0.01 55 1010.4
20260505140604 61 42 3.5 7.0 0.00 0.01 0.01 61 1010.8
20260505123104 62 168 4.3 8.7 0.00 0.01 0.01 57 1011.0
20260505122603 62 114 2.6 5.2 0.00 0.01 0.01 58 1011.0
20260505121604 62 104 2.6 7.0 0.00 0.01 0.01 58 1011.0
20260505120604 62 123 4.3 10.4 0.00 0.01 0.01 57 1011.1
20260505113605 63 15 2.6 6.1 0.00 0.01 0.01 58 1011.1
20260505112604 61 122 4.3 8.7 0.00 0.01 0.01 60 1011.2
20260505112105 61 123 1.7 7.0 0.00 0.01 0.01 60 1011.2
20260505111104 62 134 3.5 8.7 0.00 0.01 0.01 61 1011.4
20260505110104 62 127 2.6 7.0 0.00 0.01 0.01 65 1011.5
20260505101604 57 36 2.6 6.1 0.00 0.01 0.01 74 1011.8
20260505100104 56 34 4.3 7.8 0.00 0.01 0.01 76 1011.9
20260505095104 56 63 3.5 6.1 0.00 0.01 0.01 77 1011.9
20260505094104 56 36 4.3 5.2 0.00 0.01 0.01 77 1012.0
20260505093104 56 55 2.6 5.2 0.00 0.01 0.01 78 1012.0
20260505092604 56 55 2.6 6.1 0.00 0.01 0.01 79 1012.0
20260505091604 55 103 2.6 7.8 0.00 0.01 0.01 80 1012.1
20260505090104 54 52 2.6 5.2 0.00 0.01 0.01 81 1012.2
20260505085104 54 49 4.3 7.0 0.00 0.01 0.01 81 1012.3
20260505084104 54 61 4.3 7.0 0.00 0.01 0.01 81 1012.4
20260505083604 54 61 4.3 7.8 0.00 0.01 0.01 81 1012.3
20260505082604 54 70 2.6 6.1 0.00 0.01 0.01 82 1012.3
20260505082104 54 131 2.6 5.2 0.00 0.01 0.01 82 1012.3
20260505081104 54 60 2.6 6.1 0.00 0.01 0.01 83 1012.2
20260505080604 54 60 1.7 5.2 0.00 0.01 0.01 83 1012.2
20260505075103 53 63 4.3 7.0 0.00 0.01 0.01 83 1012.2
20260505074104 53 47 3.5 7.8 0.00 0.01 0.01 84 1012.2
20260505073606 53 34 4.3 6.1 0.00 0.01 0.01 84 1012.2